Doha, Qatar

3:12 AM +03 on October 20, 2017 (GMT +0300)
Doha International

Weather History for OTBD - February, 2012

Change the Weather History Date:

Friday, February 17, 2012

  Actual Average Record
Temperature  
Mean Temperature 77 °F -  
Max Temperature 85 °F 77 °F 87 °F (2015)
Min Temperature 69 °F 60 °F 37 °F (2001)
Cooling Degree Days 12    
Growing Degree Days 27 (Base 50)    
Moisture  
Dew Point 51 °F    
Average Humidity 45    
Maximum Humidity 73    
Minimum Humidity 15    
Precipitation  
Precipitation 0.00 in 0.02 in - ()
Sea Level Pressure  
Sea Level Pressure 29.70 in    
Wind  
Wind Speed 9 mph ()    
Max Wind Speed 20 mph    
Max Gust Speed 30 mph    
Visibility 4.6 miles    
Events      
Averages and records for this station are not official NWS values.
T = Trace of Precipitation, MM = Missing Value Source: Averaged Metar Reports

Daily Weather History Graph

Daily Weather History Graph

Search for Another Location

Airport or City:

Trip Planner

Search our weather history database for the weather conditions in past years. The results will help you decide how hot, cold, wet, or windy it might be!

Date:

Astronomy

Feb. 17, 2012 Rise Set
Actual Time 6:07 AM +03 5:28 PM +03
Civil Twilight 5:44 AM +03 5:51 PM +03
Nautical Twilight 5:17 AM +03 6:18 PM +03
Astronomical Twilight 4:50 AM +03 6:45 PM +03
Moon 2:18 AM +03 (2/17) 1:15 PM +03 (2/17)
Length of Visible Light 12h 07m
Length of Day
11h 20m
Waning Crescent, 22% of the Moon is Illuminated
Feb 17
Waning Crescent
Feb 22
New
Mar 1
First Quarter
Mar 8
Full
Mar 15
Last Quarter

Hourly Weather History & Observations

Time (+03) Temp. Heat Index Dew Point Humidity Pressure Visibility Wind Dir Wind Speed Gust Speed Precip Events Conditions
12:00 AM 73.4 °F - 53.6 °F 50% 29.68 in 5.6 mi SSE 9.2 mph - N/A   Unknown
12:30 AM 71.6 °F - 55.4 °F 57% 29.68 in 5.6 mi SSE 6.9 mph - N/A   Unknown
1:00 AM 73.4 °F - 51.8 °F 47% 29.68 in 5.6 mi SSE 10.4 mph - N/A   Unknown
1:30 AM 73.4 °F - 51.8 °F 47% 29.68 in 5.6 mi South 9.2 mph - N/A   Unknown
2:00 AM 71.6 °F - 51.8 °F 50% 29.68 in - South 9.2 mph - N/A   Clear
2:30 AM 71.6 °F - 51.8 °F 50% 29.65 in - South 8.1 mph - N/A   Clear
3:00 AM 72 °F - 46 °F 29% 29.67 in 6 mi South 8.1 mph - -   Scattered Clouds
3:00 AM 71.6 °F - 46.4 °F 41% 29.65 in - South 8.1 mph - N/A   Clear
3:30 AM 73.4 °F - 46.4 °F 38% 29.65 in - SSW 11.5 mph - N/A   Clear
4:00 AM 73.4 °F - 46.4 °F 38% 29.65 in - South 13.8 mph - N/A   Clear
4:30 AM 71.6 °F - 48.2 °F 43% 29.65 in - SSW 12.7 mph - N/A   Clear
5:00 AM 71.6 °F - 48.2 °F 43% 29.65 in - South 11.5 mph - N/A   Clear
5:30 AM 71.6 °F - 48.2 °F 43% 29.65 in - SSW 12.7 mph - N/A   Clear
6:00 AM 71.6 °F - 48.2 °F 43% 29.68 in 5.0 mi SSW 13.8 mph - N/A   Unknown
6:30 AM 69.8 °F - 50.0 °F 49% 29.71 in 5.0 mi SSW 11.5 mph - N/A   Unknown
7:00 AM 69.8 °F - 50.0 °F 49% 29.71 in 5.0 mi SSW 10.4 mph - N/A   Unknown
7:30 AM 69.8 °F - 48.2 °F 46% 29.74 in 4.3 mi SW 10.4 mph - N/A   Unknown
8:00 AM 73.4 °F - 44.6 °F 36% 29.74 in 3.7 mi SW 13.8 mph - N/A   Unknown
8:30 AM 75.2 °F - 42.8 °F 31% 29.77 in 3.7 mi SW 11.5 mph - N/A   Unknown
9:00 AM 76 °F - 39 °F 16% 29.77 in 5 mi SSW 13.8 mph - -   Widespread Dust
9:00 AM 75.2 °F - 39.2 °F 27% 29.77 in 5.0 mi SSW 13.8 mph - N/A   Unknown
9:30 AM 78.8 °F - 37.4 °F 23% 29.74 in 2.5 mi SSW 17.3 mph - N/A   Unknown
10:00 AM 78.8 °F - 37.4 °F 23% 29.74 in 2.2 mi South 19.6 mph - N/A   Widespread Dust
11:00 AM 80.6 °F - 37.4 °F 21% 29.71 in 2.2 mi SSW 18.4 mph 29.9 mph N/A   Unknown
12:00 PM 84.2 °F - 35.6 °F 18% 29.68 in 4.3 mi SSW 15.0 mph - N/A   Unknown
1:00 PM 86.0 °F - 33.8 °F 15% 29.68 in - SW 12.7 mph - N/A   Clear
1:30 PM 84.2 °F - 51.8 °F 33% 29.65 in 4.3 mi WSW 8.1 mph - N/A   Unknown
2:00 PM 82.4 °F 81.7 °F 55.4 °F 39% 29.65 in 3.7 mi West 8.1 mph - N/A   Unknown
3:00 PM 82 °F - 56 °F 30% 29.68 in 3 mi WNW 6.9 mph - -   Widespread Dust
3:00 PM 82.4 °F 81.7 °F 55.4 °F 39% 29.65 in 3.1 mi WNW 6.9 mph - N/A   Unknown
3:30 PM 80.6 °F - 50.0 °F 34% 29.65 in 3.7 mi WNW 6.9 mph - N/A   Unknown
4:00 PM 80.6 °F 80.5 °F 55.4 °F 42% 29.65 in 4.3 mi NW 8.1 mph - N/A   Unknown
4:30 PM 80.6 °F 80.5 °F 55.4 °F 42% 29.68 in 4.3 mi NW 9.2 mph - N/A   Unknown
5:00 PM 80.6 °F 80.3 °F 53.6 °F 39% 29.68 in 5.0 mi WNW 6.9 mph - N/A   Unknown
5:30 PM 78.8 °F - 55.4 °F 44% 29.68 in 5.6 mi WNW 6.9 mph - N/A   Unknown
6:00 PM 77.0 °F - 55.4 °F 47% 29.71 in 5.6 mi NNW 8.1 mph - N/A   Unknown
6:30 PM 77.0 °F - 55.4 °F 47% 29.71 in - NW 6.9 mph - N/A   Clear
7:00 PM 75.2 °F - 57.2 °F 53% 29.71 in - NW 6.9 mph - N/A   Clear
7:30 PM 73.4 °F - 59.0 °F 61% 29.74 in - NW 5.8 mph - N/A   Clear
8:00 PM 73.4 °F - 59.0 °F 61% 29.74 in - WNW 5.8 mph - N/A   Clear
8:30 PM 71.6 °F - 60.8 °F 69% 29.74 in - Variable 2.3 mph - N/A   Clear
9:00 PM 71 °F - 60 °F 60% 29.77 in 6 mi WNW 4.6 mph - -   Widespread Dust
9:00 PM 71.6 °F - 60.8 °F 69% 29.77 in 5.6 mi WNW 4.6 mph - N/A   Unknown
9:30 PM 71.6 °F - 60.8 °F 69% 29.77 in 5.6 mi WNW 3.5 mph - N/A   Unknown
10:00 PM 69.8 °F - 59.0 °F 68% 29.77 in 5.0 mi Variable 3.5 mph - N/A   Unknown
10:30 PM 69.8 °F - 60.8 °F 73% 29.77 in 5.0 mi NW 4.6 mph - N/A   Unknown
11:00 PM 69.8 °F - 60.8 °F 73% 29.77 in 5.0 mi Variable 2.3 mph - N/A   Unknown
11:30 PM 69.8 °F - 60.8 °F 73% 29.77 in 5.0 mi NW 3.5 mph - N/A   Unknown